This is the latest recevied weather packets stored in our database for station/object F4LNO-10. If no packets are shown the sender has not sent any weather packets the latest 10 day(s).
| Time | Temp. | Humidity | Pressure | Rain* | Wind** | Luminosity | Snow |
|---|---|---|---|---|---|---|---|
| 1777439159 | 19.44° C | 62% | 1014.8 hPa | - | - | - | - |
| 1777438258 | 19.44° C | 64% | 1014.8 hPa | - | - | - | - |
| 1777437357 | 21.11° C | 60% | 1014.9 hPa | - | - | - | - |
| 1777436456 | 21.11° C | 61% | 1014.8 hPa | - | - | - | - |
| 1777435555 | 21.67° C | 61% | 1014.8 hPa | - | - | - | - |
| 1777434654 | 21.67° C | 62% | 1014.8 hPa | - | - | - | - |
| 1777433754 | 21.67° C | 62% | 1014.5 hPa | - | - | - | - |
| 1777432853 | 21.67° C | 62% | 1014.7 hPa | - | - | - | - |
| 1777431952 | 21.67° C | 63% | 1014.8 hPa | - | - | - | - |
| 1777431051 | 21.67° C | 62% | 1015 hPa | - | - | - | - |
| 1777430150 | 21.67° C | 63% | 1015.1 hPa | - | - | - | - |
| 1777429249 | 21.67° C | 62% | 1015.1 hPa | - | - | - | - |
| 1777428348 | 21.67° C | 62% | 1015.2 hPa | - | - | - | - |
| 1777427448 | 21.67° C | 63% | 1015.2 hPa | - | - | - | - |
| 1777426567 | 21.67° C | 63% | 1015.2 hPa | - | - | - | - |
| 1777425666 | 21.67° C | 63% | 1015.2 hPa | - | - | - | - |
| 1777424765 | 21.67° C | 63% | 1015.2 hPa | - | - | - | - |
| 1777423864 | 21.67° C | 62% | 1015.2 hPa | - | - | - | - |
| 1777422963 | 21.67° C | 63% | 1015.2 hPa | - | - | - | - |
| 1777422062 | 22.22° C | 61% | 1015.2 hPa | - | - | - | - |
| 1777421162 | 21.67° C | 62% | 1015.3 hPa | - | - | - | - |
| 1777420261 | 21.67° C | 62% | 1015.4 hPa | - | - | - | - |
| 1777419360 | 22.22° C | 61% | 1015.4 hPa | - | - | - | - |
| 1777418459 | 21.67° C | 62% | 1015.4 hPa | - | - | - | - |
| 1777417558 | 22.22° C | 62% | 1015.4 hPa | - | - | - | - |
* Rain since midnight (hover to see other rain measurements)
** Current wind speed in m/s (hover to see current wind gust speed)